GW2386 Weather Reports


time (UTC)temp
C
wind
direction
speed
KPH
gust
KPH
rain 1hr
cm
rain 24hr
cm
rain mn
cm
humidity
%
barometer
mb
20260510044558 22 184 4.8 9.7 0.00 0.00 0.00 68 1010.4
20260510043056 22 182 1.6 6.4 0.00 0.00 0.00 68 1010.4
20260510041556 22 0 1.6 6.4 0.00 0.00 0.00 67 1010.4
20260510040055 23 183 3.2 11.3 0.00 0.00 0.00 64 1010.2
20260510034556 23 178 3.2 9.7 0.00 0.00 0.00 62 1010.3
20260510033129 23 142 1.6 4.8 0.00 0.00 0.00 61 1010.4
20260510031554 24 142 0.0 3.2 0.00 0.00 0.00 58 1010.2
20260510030055 25 142 0.0 6.4 0.00 0.00 0.00 56 1010.0
20260510024606 25 141 1.6 6.4 0.00 0.00 0.00 54 1009.8
20260510023056 25 151 1.6 4.8 0.00 0.00 0.00 51 1009.5
20260510021558 26 151 1.6 4.8 0.00 0.00 0.00 49 1009.4
20260510020058 26 150 1.6 4.8 0.00 0.00 0.00 48 1009.2
20260510014556 27 0 0.0 8.0 0.00 0.00 0.00 47 1008.9
20260510013054 28 159 1.6 8.0 0.00 0.00 0.00 45 1008.7
20260510011556 28 165 0.0 6.4 0.00 0.00 0.00 42 1008.7
20260510010058 30 165 1.6 6.4 0.00 0.00 0.00 39 1008.6
20260510004557 30 148 1.6 9.7 0.00 0.00 0.00 36 1008.5
20260510003105 31 159 1.6 11.3 0.00 0.00 0.00 32 1008.5
20260510001602 31 167 6.4 12.9 0.00 0.00 0.00 34 1008.4
20260510000057 32 153 3.2 9.7 0.00 0.00 0.00 32 1008.4
20260509234614 32 123 3.2 11.3 0.00 0.00 0.00 31 1008.3
20260509233057 32 192 4.8 11.3 0.00 0.00 0.00 30 1008.3
20260509231602 32 142 4.8 12.9 0.00 0.00 0.00 30 1008.4
20260509224601 32 188 8.0 17.7 0.00 0.00 0.00 33 1008.6
20260509223104 32 202 9.7 19.3 0.00 0.00 0.00 31 1008.6
20260509221558 32 123 3.2 20.9 0.00 0.00 0.00 30 1008.7
20260509220055 32 168 4.8 16.1 0.00 0.00 0.00 34 1008.6
20260509214557 32 197 9.7 20.9 0.00 0.00 0.00 35 1008.8
20260509213058 32 181 4.8 16.1 0.00 0.00 0.00 35 1009.0
20260509211555 32 185 1.6 22.5 0.00 0.00 0.00 35 1009.3
20260509210104 32 360 4.8 19.3 0.00 0.00 0.00 36 1009.5
20260509204605 31 175 4.8 19.3 0.00 0.00 0.00 38 1009.7
20260509203101 31 194 3.2 16.1 0.00 0.00 0.00 34 1009.9
20260509201554 31 186 4.8 16.1 0.00 0.00 0.00 38 1010.1
20260509200055 31 181 8.0 22.5 0.00 0.00 0.00 41 1010.4
20260509194553 31 192 8.0 20.9 0.00 0.00 0.00 43 1010.6
20260509193055 31 175 6.4 22.5 0.00 0.00 0.00 41 1010.8
20260509191555 30 195 6.4 20.9 0.00 0.00 0.00 44 1010.8
20260509190056 30 159 8.0 19.3 0.00 0.00 0.00 45 1011.0
20260509184553 30 202 9.7 20.9 0.00 0.00 0.00 43 1011.0
20260509183055 29 172 6.4 19.3 0.00 0.00 0.00 48 1011.3
20260509181611 28 175 6.4 20.9 0.00 0.00 0.00 50 1011.6
20260509180113 28 175 8.0 19.3 0.00 0.00 0.00 55 1011.9
20260509174558 27 185 6.4 17.7 0.00 0.00 0.00 56 1012.2
20260509173109 27 196 6.4 14.5 0.00 0.00 0.00 55 1012.2
20260509171604 27 191 3.2 16.1 0.00 0.00 0.00 55 1012.4
20260509164601 26 180 6.4 12.9 0.00 0.00 0.00 63 1012.5
20260509163101 25 196 3.2 14.5 0.00 0.00 0.00 69 1012.7
20260509161603 25 178 4.8 14.5 0.00 0.00 0.00 71 1012.5
20260509160056 24 194 8.0 14.5 0.00 0.00 0.00 73 1012.5
20260509154612 23 169 6.4 14.5 0.00 0.00 0.00 76 1012.6
20260509153109 23 183 4.8 11.3 0.00 0.00 0.00 76 1012.7
20260509151609 23 177 4.8 12.9 0.00 0.00 0.00 77 1012.9
20260509150055 22 0 0.0 4.8 0.00 0.00 0.00 87 1012.9
20260509144555 20 290 3.2 6.4 0.00 0.00 0.00 94 1013.0
20260509143106 18 340 3.2 16.1 0.00 0.00 0.00 95 1013.1
20260509141555 18 9 4.8 14.5 0.00 0.00 0.00 95 1013.1
20260509140053 17 284 6.4 12.9 0.00 0.00 0.00 95 1013.0
20260509134556 17 350 6.4 14.5 0.00 0.00 0.00 95 1013.1
20260509133106 17 342 4.8 12.9 0.00 0.00 0.00 95 1013.1
20260509131553 16 344 6.4 12.9 0.00 0.00 0.00 94 1013.2
20260509130105 16 301 1.6 4.8 0.00 0.00 0.00 94 1012.8
20260509124553 15 301 1.6 4.8 0.00 0.00 0.00 94 1012.6
20260509123056 15 0 0.0 4.8 0.00 0.00 0.00 94 1012.4
20260509121555 15 0 1.6 6.4 0.00 0.00 0.00 94 1012.3
20260509120059 15 301 1.6 6.4 0.00 0.00 0.00 94 1012.2
20260509114554 14 150 1.6 4.8 0.00 0.00 0.00 93 1012.0
20260509113058 14 31 0.0 6.4 0.00 0.00 0.00 93 1011.7
20260509111553 15 0 0.0 4.8 0.00 0.00 0.00 93 1011.8
20260509110057 15 0 0.0 4.8 0.00 0.00 0.00 93 1011.8
20260509104608 15 0 0.0 4.8 0.00 0.00 0.00 93 1011.7
20260509103111 15 0 0.0 4.8 0.00 0.00 0.00 92 1011.9
20260509101557 15 0 0.0 3.2 0.00 0.00 0.00 92 1011.9
20260509100055 15 0 0.0 6.4 0.00 0.00 0.00 92 1011.9
20260509094555 15 0 0.0 4.8 0.00 0.00 0.00 92 1012.1
20260509093102 15 182 1.6 6.4 0.00 0.00 0.00 92 1011.8
20260509091557 15 182 3.2 4.8 0.00 0.00 0.00 91 1011.5
20260509090059 15 0 0.0 3.2 0.00 0.00 0.00 91 1012.1
20260509084607 15 0 0.0 3.2 0.00 0.00 0.00 90 1011.7
20260509083057 16 0 0.0 4.8 0.00 0.00 0.00 90 1011.5
20260509081557 16 183 3.2 9.7 0.00 0.00 0.00 91 1011.5
20260509080055 16 0 0.0 1.6 0.00 0.00 0.00 91 1011.8
20260509074558 15 0 1.6 8.0 0.00 0.00 0.00 90 1012.2
20260509073058 16 352 1.6 4.8 0.00 0.00 0.00 89 1012.2
20260509071600 16 343 3.2 8.0 0.00 0.00 0.00 89 1012.1
20260509070105 16 346 4.8 11.3 0.00 0.00 0.00 88 1011.8
20260509064557 17 192 1.6 4.8 0.00 0.00 0.00 88 1011.0
20260509063110 17 192 0.0 6.4 0.00 0.00 0.00 87 1010.7
20260509061616 17 0 0.0 0.0 0.00 0.00 0.00 88 1010.6
20260509060059 17 0 0.0 3.2 0.00 0.00 0.00 87 1010.4
20260509054554 18 0 0.0 3.2 0.00 0.00 0.00 86 1010.4
20260509053056 18 0 0.0 1.6 0.00 0.00 0.00 85 1010.5
20260509051556 18 0 0.0 3.2 0.00 0.00 0.00 83 1010.6
20260509050053 18 192 0.0 1.6 0.00 0.00 0.00 83 1010.6